map of CGK home
CGK - Airport
Location
City:  Jakarta, Banten, Indonesia
Near (Alt.):Tangerang
Name:Soekarno-Hatta International Airport
Old (Alt.):Cengkareng Airport
ICAO:WIII
IATA:CGK

Details
Type:Airport (Aerodrome, Airfield)
Use:Public/Civil, International (customs port of entry)
Latitude:607'32"S (-6.125566)
Longitude:10639'21"E (106.655897)
Datum:WGS 1984
Elevation:34 ft (10 m)
Variation:0.64E (WMM2015 magnetic declination)
-0.02 annual change
Runways:2
Longest:12008 × 197 ft (3660 × 60 m), paved

Time
Time Zone:UTC+7
Local Time:

Weather
METAR:WIII 231200Z 26008KT 8000 SCT020 28/24 Q1010 NOSIG
TAF:WIII 230500Z 2306/2412 29012KT 9000 BKN021
BECMG 2312/2314 24006KT
BECMG 2401/2403 28012KT
TEMPO 2409/2412 VCTS FEW018CB

Related Locations
Nearby:
Farthest:SKTJ: 12450 mi / 20037 km
Tunja, BOY, CO

Find:

   beyond  
but within

Other Information
Maps:
NOTAMs:
Links:
Sources:

  
flag of Indonesia
flag of Banten
  

Sectional Chart

Flight Planning
at skyvector.com

Satellite Image

Google Maps Satellite view

 

Copyright © 2004-2017 Karl L. Swartz. All rights reserved.
The Great Circle Mapper name and logo are trademarks of the Great Circle Mapper.
All other trademarks mentioned herein belong to their respective owners.
Please see credits for attibutions and further copyright information.

  Follow gcmap on Facebook Follow gcmap on Twitter Follow gcmap on Google+ GCmap on LinkedIn

hCard Microformat

Geo Microformat